04-10-2022, 00:00:05,    157,    0.6,   11.5,   0.00,   0.00, 1015.7,   98.9, -999.0
04-10-2022, 00:00:15,    157,    1.1,   11.5,   0.00,   0.00, 1015.7,   99.0, -999.0
04-10-2022, 00:00:25,    157,    1.0,   11.5,   0.00,   0.00, 1015.7,   99.0, -999.0
04-10-2022, 00:00:35,    157,    0.2,   11.4,   0.00,   0.00, 1015.6,   98.8, -999.0
04-10-2022, 00:00:45,    157,    0.0,   11.4,   0.00,   0.00, 1015.6,   98.6, -999.0
04-10-2022, 00:00:55,    157,    0.0,   11.4,   0.00,   0.00, 1015.6,   98.7, -999.0
04-10-2022, 00:01:05,    157,    0.0,   11.4,   0.00,   0.00, 1015.6,   98.6, -999.0
04-10-2022, 00:01:15,    157,    0.0,   11.4,   0.00,   0.00, 1015.6,   98.7, -999.0
04-10-2022, 00:01:25,    155,    1.5,   11.5,   0.00,   0.00, 1015.7,   99.0, -999.0
04-10-2022, 00:01:34,    155,    1.0,   11.5,   0.00,   0.00, 1015.7,   99.0, -999.0
04-10-2022, 00:01:45,    155,    0.7,   11.5,   0.00,   0.00, 1015.6,   98.9, -999.0
04-10-2022, 00:01:55,    155,    2.1,   11.5,   0.00,   0.00, 1015.7,   99.0, -999.0
04-10-2022, 00:02:04,    152,    2.6,   11.5,   0.00,   0.00, 1015.7,   99.0, -999.0
04-10-2022, 00:02:14,    153,    1.2,   11.4,   0.00,   0.00, 1015.6,   99.0, -999.0
04-10-2022, 00:02:25,    152,    0.1,   11.4,   0.00,   0.00, 1015.6,   98.8, -999.0
04-10-2022, 00:02:34,    152,    0.0,   11.4,   0.00,   0.00, 1015.5,   98.7, -999.0
04-10-2022, 00:02:44,    152,    0.0,   11.4,   0.00,   0.00, 1015.5,   98.8, -999.0
04-10-2022, 00:02:54,    152,    0.1,   11.4,   0.00,   0.00, 1015.5,   98.8, -999.0
04-10-2022, 00:03:04,    153,    0.7,   11.5,   0.00,   0.00, 1015.6,   99.0, -999.0
04-10-2022, 00:03:14,    152,    0.2,   11.4,   0.00,   0.00, 1015.6,   98.9, -999.0
04-10-2022, 00:03:24,    152,    0.1,   11.4,   0.00,   0.00, 1015.6,   98.8, -999.0
04-10-2022, 00:03:34,    153,    0.4,   11.4,   0.00,   0.00, 1015.6,   98.9, -999.0
04-10-2022, 00:03:44,    152,    1.0,   11.5,   0.00,   0.00, 1015.7,   99.1, -999.0
04-10-2022, 00:03:54,    152,    1.6,   11.5,   0.00,   0.00, 1015.7,   99.0, -999.0
04-10-2022, 00:04:04,    152,    1.3,   11.4,   0.00,   0.00, 1015.6,   99.0, -999.0
04-10-2022, 00:04:14,    153,    1.1,   11.4,   0.00,   0.00, 1015.6,   99.0, -999.0
04-10-2022, 00:04:24,    152,    0.6,   11.4,   0.00,   0.00, 1015.6,   98.9, -999.0
04-10-2022, 00:04:34,    152,    0.0,   11.4,   0.00,   0.00, 1015.6,   98.7, -999.0
04-10-2022, 00:04:43,    152,    0.0,   11.4,   0.00,   0.00, 1015.6,   98.5, -999.0
04-10-2022, 00:04:54,    152,    0.0,   11.4,   0.00,   0.00, 1015.5,   98.5, -999.0
04-10-2022, 00:05:04,    152,    0.0,   11.3,   0.00,   0.00, 1015.6,   98.7, -999.0
04-10-2022, 00:05:13,    152,    0.0,   11.4,   0.00,   0.00, 1015.5,   98.6, -999.0
04-10-2022, 00:05:23,    152,    0.0,   11.4,   0.00,   0.00, 1015.6,   98.6, -999.0
04-10-2022, 00:05:34,    152,    0.0,   11.4,   0.00,   0.00, 1015.6,   98.6, -999.0
04-10-2022, 00:05:43,    152,    0.0,   11.5,   0.00,   0.00, 1015.6,   98.7, -999.0
04-10-2022, 00:05:53,    152,    0.0,   11.4,   0.00,   0.00, 1015.6,   98.5, -999.0
04-10-2022, 00:06:03,    152,    0.0,   11.4,   0.00,   0.00, 1015.5,   98.6, -999.0
04-10-2022, 00:06:13,    152,    0.0,   11.4,   0.00,   0.00, 1015.6,   98.6, -999.0
04-10-2022, 00:06:23,    152,    0.2,   11.4,   0.00,   0.00, 1015.6,   98.8, -999.0
04-10-2022, 00:06:33,    152,    1.2,   11.4,   0.00,   0.00, 1015.6,   99.0, -999.0
04-10-2022, 00:06:43,    152,    0.7,   11.5,   0.00,   0.00, 1015.6,   98.9, -999.0
04-10-2022, 00:06:53,    152,    0.7,   11.4,   0.00,   0.00, 1015.7,   99.0, -999.0
04-10-2022, 00:07:03,    152,    0.1,   11.4,   0.00,   0.00, 1015.6,   98.7, -999.0
04-10-2022, 00:07:13,    152,    0.0,   11.4,   0.00,   0.00, 1015.5,   98.6, -999.0
04-10-2022, 00:07:23,    152,    0.0,   11.4,   0.00,   0.00, 1015.6,   98.7, -999.0
04-10-2022, 00:07:33,    152,    0.0,   11.4,   0.00,   0.00, 1015.6,   98.6, -999.0
04-10-2022, 00:07:43,    152,    0.7,   11.5,   0.00,   0.00, 1015.6,   98.9, -999.0
04-10-2022, 00:07:52,    152,    0.6,   11.6,   0.00,   0.00, 1015.7,   99.0, -999.0
04-10-2022, 00:08:03,    152,    0.0,   11.4,   0.00,   0.00, 1015.5,   98.6, -999.0
04-10-2022, 00:08:13,    152,    0.0,   11.4,   0.00,   0.00, 1015.5,   98.7, -999.0
04-10-2022, 00:08:22,    152,    0.2,   11.4,   0.00,   0.00, 1015.6,   98.8, -999.0
04-10-2022, 00:08:32,    152,    0.5,   11.6,   0.00,   0.00, 1015.7,   99.0, -999.0
04-10-2022, 00:08:43,    152,    0.2,   11.5,   0.00,   0.00, 1015.6,   98.8, -999.0
04-10-2022, 00:08:52,    152,    0.5,   11.5,   0.00,   0.00, 1015.6,   98.9, -999.0
04-10-2022, 00:09:02,    152,    0.7,   11.5,   0.00,   0.00, 1015.6,   98.9, -999.0
04-10-2022, 00:09:12,    152,    0.5,   11.5,   0.00,   0.00, 1015.6,   98.8, -999.0
04-10-2022, 00:09:22,    152,    0.3,   11.5,   0.00,   0.00, 1015.6,   98.9, -999.0
04-10-2022, 00:09:32,    152,    0.0,   11.4,   0.00,   0.00, 1015.4,   98.6, -999.0
04-10-2022, 00:09:42,    152,    0.0,   11.4,   0.00,   0.00, 1015.5,   98.6, -999.0
04-10-2022, 00:09:52,    152,    0.0,   11.4,   0.00,   0.00, 1015.4,   98.6, -999.0
04-10-2022, 00:10:02,    152,    0.3,   11.5,   0.00,   0.00, 1015.5,   98.8, -999.0
04-10-2022, 00:10:12,    152,    1.4,   11.6,   0.00,   0.00, 1015.6,   99.0, -999.0
04-10-2022, 00:10:22,    152,    0.3,   11.5,   0.00,   0.00, 1015.5,   98.8, -999.0
04-10-2022, 00:10:31,    152,    1.0,   11.5,   0.00,   0.00, 1015.6,   98.9, -999.0
04-10-2022, 00:10:42,    152,    0.8,   11.5,   0.00,   0.00, 1015.6,   99.0, -999.0
04-10-2022, 00:10:52,    152,    0.6,   11.4,   0.00,   0.00, 1015.6,   99.0, -999.0
04-10-2022, 00:11:01,    152,    1.2,   11.4,   0.00,   0.00, 1015.6,   99.0, -999.0
04-10-2022, 00:11:12,    152,    0.5,   11.5,   0.00,   0.00, 1015.6,   99.0, -999.0
04-10-2022, 00:11:22,    152,    0.0,   11.4,   0.00,   0.00, 1015.5,   98.5, -999.0
04-10-2022, 00:11:31,    152,    0.0,   11.4,   0.00,   0.00, 1015.5,   98.7, -999.0
04-10-2022, 00:11:41,    152,    0.0,   11.4,   0.00,   0.00, 1015.5,   98.5, -999.0
04-10-2022, 00:11:52,    151,    0.0,   11.4,   0.00,   0.00, 1015.4,   98.6, -999.0
04-10-2022, 00:12:01,    152,    0.1,   11.4,   0.00,   0.00, 1015.5,   98.8, -999.0
04-10-2022, 00:12:11,    152,    0.7,   11.5,   0.00,   0.00, 1015.6,   98.8, -999.0
04-10-2022, 00:12:21,    152,    0.0,   11.4,   0.00,   0.00, 1015.5,   98.6, -999.0
04-10-2022, 00:12:31,    152,    0.5,   11.4,   0.00,   0.00, 1015.6,   98.9, -999.0
04-10-2022, 00:12:41,    152,    0.1,   11.5,   0.00,   0.00, 1015.5,   98.8, -999.0
04-10-2022, 00:12:51,    152,    1.1,   11.5,   0.00,   0.00, 1015.6,   99.0, -999.0
04-10-2022, 00:13:01,    152,    1.4,   11.5,   0.00,   0.00, 1015.5,   99.1, -999.0
04-10-2022, 00:13:11,    152,    0.5,   11.5,   0.00,   0.00, 1015.5,   98.8, -999.0
04-10-2022, 00:13:21,    152,    0.0,   11.4,   0.00,   0.00, 1015.4,   98.6, -999.0
04-10-2022, 00:13:31,    152,    0.0,   11.4,   0.00,   0.00, 1015.4,   98.7, -999.0
04-10-2022, 00:13:41,    152,    0.0,   11.4,   0.00,   0.00, 1015.4,   98.6, -999.0
04-10-2022, 00:13:51,    152,    0.4,   11.4,   0.00,   0.00, 1015.5,   98.8, -999.0
04-10-2022, 00:14:01,    152,    0.9,   11.5,   0.00,   0.00, 1015.5,   99.0, -999.0
04-10-2022, 00:14:10,    152,    0.7,   11.5,   0.00,   0.00, 1015.5,   98.9, -999.0
04-10-2022, 00:14:21,    152,    0.0,   11.4,   0.00,   0.00, 1015.4,   98.6, -999.0
04-10-2022, 00:14:31,    152,    0.9,   11.4,   0.00,   0.00, 1015.5,   98.9, -999.0
04-10-2022, 00:14:40,    152,    1.5,   11.5,   0.00,   0.00, 1015.6,   99.0, -999.0
04-10-2022, 00:14:50,    152,    0.5,   11.5,   0.00,   0.00, 1015.6,   98.9, -999.0
04-10-2022, 00:15:00,    152,    0.3,   11.4,   0.00,   0.00, 1015.4,   98.8, -999.0
04-10-2022, 00:15:10,    152,    0.1,   11.4,   0.00,   0.00, 1015.4,   98.9, -999.0
04-10-2022, 00:15:20,    152,    0.5,   11.5,   0.00,   0.00, 1015.5,   98.9, -999.0
04-10-2022, 00:15:30,    152,    0.8,   11.5,   0.00,   0.00, 1015.5,   99.0, -999.0
04-10-2022, 00:15:40,    152,    0.1,   11.4,   0.00,   0.00, 1015.4,   98.7, -999.0
04-10-2022, 00:15:50,    152,    0.1,   11.3,   0.00,   0.00, 1015.4,   98.8, -999.0
04-10-2022, 00:16:00,    152,    0.2,   11.5,   0.00,   0.00, 1015.4,   98.9, -999.0
04-10-2022, 00:16:10,    152,    0.0,   11.4,   0.00,   0.00, 1015.3,   98.5, -999.0
04-10-2022, 00:16:20,    152,    0.4,   11.5,   0.00,   0.00, 1015.4,   98.9, -999.0
04-10-2022, 00:16:30,    152,    0.3,   11.5,   0.00,   0.00, 1015.4,   98.9, -999.0
04-10-2022, 00:16:40,    152,    0.0,   11.4,   0.00,   0.00, 1015.3,   98.7, -999.0
04-10-2022, 00:16:50,    152,    0.0,   11.4,   0.00,   0.00, 1015.3,   98.6, -999.0
04-10-2022, 00:17:00,    152,    0.0,   11.4,   0.00,   0.00, 1015.3,   98.6, -999.0
04-10-2022, 00:17:10,    152,    0.0,   11.4,   0.00,   0.00, 1015.4,   98.8, -999.0
04-10-2022, 00:17:19,    152,    0.2,   11.5,   0.00,   0.00, 1015.3,   98.8, -999.0
04-10-2022, 00:17:30,    152,    0.1,   11.5,   0.00,   0.00, 1015.4,   98.8, -999.0
04-10-2022, 00:17:40,    152,    1.1,   11.5,   0.00,   0.00, 1015.4,   99.0, -999.0
04-10-2022, 00:17:49,    152,    0.5,   11.5,   0.00,   0.00, 1015.4,   98.9, -999.0
04-10-2022, 00:17:59,    152,    0.0,   11.4,   0.00,   0.00, 1015.4,   98.7, -999.0
04-10-2022, 00:18:09,    152,    0.6,   11.5,   0.00,   0.00, 1015.4,   99.0, -999.0
04-10-2022, 00:18:19,    152,    0.8,   11.6,   0.00,   0.00, 1015.5,   99.0, -999.0
04-10-2022, 00:18:29,    151,    0.4,   11.5,   0.00,   0.00, 1015.4,   98.8, -999.0
04-10-2022, 00:18:39,    152,    0.2,   11.5,   0.00,   0.00, 1015.4,   98.9, -999.0
04-10-2022, 00:18:49,    152,    0.2,   11.5,   0.00,   0.00, 1015.4,   98.9, -999.0
04-10-2022, 00:18:59,    149,    0.5,   11.5,   0.00,   0.00, 1015.4,   99.0, -999.0
04-10-2022, 00:19:09,    152,    0.6,   11.5,   0.00,   0.00, 1015.4,   99.0, -999.0
04-10-2022, 00:19:19,    152,    0.4,   11.5,   0.00,   0.00, 1015.4,   99.0, -999.0
04-10-2022, 00:19:29,    152,    0.3,   11.5,   0.00,   0.00, 1015.4,   98.8, -999.0
04-10-2022, 00:19:39,    152,    0.3,   11.4,   0.00,   0.00, 1015.4,   99.0, -999.0
04-10-2022, 00:19:49,    152,    0.8,   11.5,   0.00,   0.00, 1015.4,   99.0, -999.0
04-10-2022, 00:19:59,    152,    0.5,   11.5,   0.00,   0.00, 1015.4,   99.0, -999.0
04-10-2022, 00:20:09,    152,    0.8,   11.5,   0.00,   0.00, 1015.4,   99.0, -999.0
04-10-2022, 00:20:19,    152,    0.7,   11.5,   0.00,   0.00, 1015.5,   98.9, -999.0
04-10-2022, 00:20:28,    151,    0.0,   11.5,   0.00,   0.00, 1015.3,   98.8, -999.0
04-10-2022, 00:20:39,    152,    0.0,   11.4,   0.00,   0.00, 1015.2,   98.6, -999.0
04-10-2022, 00:20:49,    152,    0.0,   11.5,   0.00,   0.00, 1015.3,   98.6, -999.0
04-10-2022, 00:20:58,    152,    0.0,   11.5,   0.00,   0.00, 1015.3,   98.7, -999.0
04-10-2022, 00:21:08,    151,    0.0,   11.5,   0.00,   0.00, 1015.3,   98.6, -999.0
04-10-2022, 00:21:18,    152,    0.2,   11.5,   0.00,   0.00, 1015.4,   98.8, -999.0
04-10-2022, 00:21:28,    152,    0.0,   11.5,   0.00,   0.00, 1015.3,   98.6, -999.0
04-10-2022, 00:21:38,    152,    0.1,   11.5,   0.00,   0.00, 1015.4,   98.8, -999.0
04-10-2022, 00:21:48,    152,    0.6,   11.6,   0.00,   0.00, 1015.4,   99.0, -999.0
04-10-2022, 00:21:58,    152,    0.2,   11.5,   0.00,   0.00, 1015.3,   98.8, -999.0
04-10-2022, 00:22:08,    152,    0.0,   11.5,   0.00,   0.00, 1015.3,   98.7, -999.0
04-10-2022, 00:22:18,    152,    0.1,   11.5,   0.00,   0.00, 1015.3,   98.9, -999.0
04-10-2022, 00:22:28,    152,    0.8,   11.5,   0.00,   0.00, 1015.4,   99.0, -999.0
04-10-2022, 00:22:38,    152,    0.7,   11.6,   0.00,   0.00, 1015.4,   98.9, -999.0
04-10-2022, 00:22:48,    152,    0.3,   11.6,   0.00,   0.00, 1015.4,   99.0, -999.0
04-10-2022, 00:22:58,    152,    0.1,   11.5,   0.00,   0.00, 1015.3,   98.8, -999.0
04-10-2022, 00:23:08,    151,    0.1,   11.5,   0.00,   0.00, 1015.3,   98.7, -999.0
04-10-2022, 00:23:18,    152,    0.0,   11.5,   0.00,   0.00, 1015.2,   98.6, -999.0
04-10-2022, 00:23:28,    151,    0.0,   11.4,   0.00,   0.00, 1015.2,   98.6, -999.0
04-10-2022, 00:23:37,    152,    0.0,   11.5,   0.00,   0.00, 1015.2,   98.7, -999.0
04-10-2022, 00:23:48,    152,    0.4,   11.5,   0.00,   0.00, 1015.3,   98.8, -999.0
04-10-2022, 00:23:57,    152,    0.6,   11.5,   0.00,   0.00, 1015.4,   99.1, -999.0
04-10-2022, 00:24:07,    151,    0.6,   11.5,   0.00,   0.00, 1015.4,   98.9, -999.0
04-10-2022, 00:24:17,    151,    0.0,   11.4,   0.00,   0.00, 1015.3,   98.6, -999.0
04-10-2022, 00:24:27,    151,    0.0,   11.5,   0.00,   0.00, 1015.2,   98.6, -999.0
04-10-2022, 00:24:37,    151,    0.0,   11.4,   0.00,   0.00, 1015.3,   98.6, -999.0
04-10-2022, 00:24:47,    151,    0.0,   11.5,   0.00,   0.00, 1015.3,   98.6, -999.0
04-10-2022, 00:24:57,    152,    0.5,   11.6,   0.00,   0.00, 1015.4,   98.9, -999.0
04-10-2022, 00:25:07,    152,    1.1,   11.6,   0.00,   0.00, 1015.4,   99.0, -999.0
04-10-2022, 00:25:17,    152,    0.4,   11.5,   0.00,   0.00, 1015.4,   99.0, -999.0
04-10-2022, 00:25:27,    152,    0.6,   11.6,   0.00,   0.00, 1015.4,   99.0, -999.0
04-10-2022, 00:25:37,    152,    0.8,   11.5,   0.00,   0.00, 1015.4,   99.0, -999.0
04-10-2022, 00:25:47,    152,    0.2,   11.3,   0.00,   0.00, 1015.3,   98.8, -999.0
04-10-2022, 00:25:57,    151,    0.0,   11.3,   0.00,   0.00, 1015.3,   98.6, -999.0
04-10-2022, 00:26:07,    151,    0.0,   11.5,   0.00,   0.00, 1015.3,   98.7, -999.0
04-10-2022, 00:26:17,    152,    0.0,   11.5,   0.00,   0.00, 1015.3,   98.7, -999.0
04-10-2022, 00:26:27,    151,    0.0,   11.4,   0.00,   0.00, 1015.3,   98.6, -999.0
04-10-2022, 00:26:36,    151,    0.0,   11.5,   0.00,   0.00, 1015.3,   98.6, -999.0
04-10-2022, 00:26:47,    151,    0.0,   11.5,   0.00,   0.00, 1015.3,   98.6, -999.0
04-10-2022, 00:26:57,    152,    0.0,   11.5,   0.00,   0.00, 1015.3,   98.6, -999.0
04-10-2022, 00:27:06,    152,    0.2,   11.5,   0.00,   0.00, 1015.4,   98.8, -999.0
04-10-2022, 00:27:16,    151,    0.0,   11.6,   0.00,   0.00, 1015.3,   98.7, -999.0
04-10-2022, 00:27:27,    152,    0.0,   11.6,   0.00,   0.00, 1015.3,   98.6, -999.0
04-10-2022, 00:27:36,    152,    0.0,   11.6,   0.00,   0.00, 1015.3,   98.6, -999.0
04-10-2022, 00:27:46,    151,    0.0,   11.6,   0.00,   0.00, 1015.3,   98.7, -999.0
04-10-2022, 00:27:56,    151,    0.0,   11.5,   0.00,   0.00, 1015.3,   98.6, -999.0
04-10-2022, 00:28:06,    152,    0.0,   11.5,   0.00,   0.00, 1015.3,   98.6, -999.0
04-10-2022, 00:28:16,    151,    0.0,   11.5,   0.00,   0.00, 1015.3,   98.6, -999.0
04-10-2022, 00:28:26,    152,    0.0,   11.6,   0.00,   0.00, 1015.3,   98.7, -999.0
04-10-2022, 00:28:36,    152,    0.0,   11.6,   0.00,   0.00, 1015.3,   98.6, -999.0
04-10-2022, 00:28:46,    151,    0.0,   11.5,   0.00,   0.00, 1015.3,   98.6, -999.0
04-10-2022, 00:28:56,    151,    0.0,   11.6,   0.00,   0.00, 1015.3,   98.6, -999.0
04-10-2022, 00:29:06,    152,    0.0,   11.6,   0.00,   0.00, 1015.3,   98.6, -999.0
04-10-2022, 00:29:16,    151,    0.0,   11.6,   0.00,   0.00, 1015.3,   98.6, -999.0
04-10-2022, 00:29:26,    151,    0.0,   11.6,   0.00,   0.00, 1015.4,   98.6, -999.0
04-10-2022, 00:29:36,    152,    0.0,   11.6,   0.00,   0.00, 1015.3,   98.6, -999.0
04-10-2022, 00:29:45,    151,    0.0,   11.6,   0.00,   0.00, 1015.4,   98.6, -999.0
04-10-2022, 00:29:56,    152,    0.0,   11.6,   0.00,   0.00, 1015.4,   98.6, -999.0
04-10-2022, 00:30:06,    151,    0.0,   11.6,   0.00,   0.00, 1015.4,   98.6, -999.0
04-10-2022, 00:30:15,    152,    0.0,   11.5,   0.00,   0.00, 1015.4,   98.6, -999.0
04-10-2022, 00:30:25,    151,    0.0,   11.6,   0.00,   0.00, 1015.4,   98.6, -999.0
04-10-2022, 00:30:36,    152,    0.0,   11.6,   0.00,   0.00, 1015.4,   98.7, -999.0
04-10-2022, 00:30:45,    151,    0.0,   11.6,   0.00,   0.00, 1015.4,   98.6, -999.0
04-10-2022, 00:30:55,    152,    0.0,   11.6,   0.00,   0.00, 1015.4,   98.7, -999.0
04-10-2022, 00:31:05,    151,    0.0,   11.5,   0.00,   0.00, 1015.4,   98.6, -999.0
04-10-2022, 00:31:15,    151,    0.0,   11.5,   0.00,   0.00, 1015.4,   98.6, -999.0
04-10-2022, 00:31:25,    151,    0.0,   11.6,   0.00,   0.00, 1015.5,   98.6, -999.0
04-10-2022, 00:31:35,    152,    0.0,   11.6,   0.00,   0.00, 1015.4,   98.6, -999.0
04-10-2022, 00:31:45,    151,    0.0,   11.6,   0.00,   0.00, 1015.4,   98.6, -999.0
04-10-2022, 00:31:55,    152,    0.0,   11.5,   0.00,   0.00, 1015.4,   98.6, -999.0
04-10-2022, 00:32:05,    151,    0.0,   11.5,   0.00,   0.00, 1015.4,   98.6, -999.0
04-10-2022, 00:32:15,    152,    0.0,   11.6,   0.00,   0.00, 1015.4,   98.6, -999.0
04-10-2022, 00:32:24,    152,    0.0,   11.5,   0.00,   0.00, 1015.4,   98.6, -999.0
04-10-2022, 00:32:35,    152,    0.0,   11.5,   0.00,   0.00, 1015.4,   98.6, -999.0
04-10-2022, 00:32:45,    151,    0.0,   11.6,   0.00,   0.00, 1015.4,   98.6, -999.0
04-10-2022, 00:32:54,    151,    0.0,   11.6,   0.00,   0.00, 1015.4,   98.6, -999.0
04-10-2022, 00:33:05,    151,    0.0,   11.6,   0.00,   0.00, 1015.4,   98.7, -999.0
04-10-2022, 00:33:15,    152,    0.0,   11.6,   0.00,   0.00, 1015.4,   98.6, -999.0
04-10-2022, 00:33:24,    152,    0.0,   11.5,   0.00,   0.00, 1015.4,   98.6, -999.0
04-10-2022, 00:33:34,    152,    0.0,   11.6,   0.00,   0.00, 1015.4,   98.6, -999.0
04-10-2022, 00:33:45,    151,    0.0,   11.6,   0.00,   0.00, 1015.4,   98.6, -999.0
04-10-2022, 00:33:54,    151,    0.0,   11.5,   0.00,   0.00, 1015.4,   98.6, -999.0
04-10-2022, 00:34:04,    152,    0.0,   11.5,   0.00,   0.00, 1015.4,   98.6, -999.0
04-10-2022, 00:34:14,    152,    0.0,   11.5,   0.00,   0.00, 1015.4,   98.6, -999.0
04-10-2022, 00:34:24,    151,    0.0,   11.5,   0.00,   0.00, 1015.4,   98.5, -999.0
04-10-2022, 00:34:34,    152,    0.0,   11.5,   0.00,   0.00, 1015.4,   98.7, -999.0
04-10-2022, 00:34:44,    151,    0.0,   11.5,   0.00,   0.00, 1015.4,   98.6, -999.0
04-10-2022, 00:34:54,    151,    0.0,   11.5,   0.00,   0.00, 1015.4,   98.7, -999.0
04-10-2022, 00:35:04,    151,    0.0,   11.5,   0.00,   0.00, 1015.4,   98.5, -999.0
04-10-2022, 00:35:14,    151,    0.0,   11.5,   0.00,   0.00, 1015.4,   98.6, -999.0
04-10-2022, 00:35:24,    151,    0.0,   11.6,   0.00,   0.00, 1015.4,   98.6, -999.0
04-10-2022, 00:35:34,    151,    0.0,   11.5,   0.00,   0.00, 1015.4,   98.7, -999.0
04-10-2022, 00:35:44,    151,    0.0,   11.6,   0.00,   0.00, 1015.4,   98.6, -999.0
04-10-2022, 00:35:54,    151,    0.0,   11.7,   0.00,   0.00, 1015.3,   98.6, -999.0
04-10-2022, 00:36:03,    151,    0.0,   11.7,   0.00,   0.00, 1015.4,   98.6, -999.0
04-10-2022, 00:36:14,    152,    0.0,   11.7,   0.00,   0.00, 1015.3,   98.6, -999.0
04-10-2022, 00:36:24,    152,    0.0,   11.7,   0.00,   0.00, 1015.4,   98.6, -999.0
04-10-2022, 00:36:33,    152,    0.0,   11.7,   0.00,   0.00, 1015.4,   98.6, -999.0
04-10-2022, 00:36:43,    152,    0.0,   11.8,   0.00,   0.00, 1015.4,   98.6, -999.0
04-10-2022, 00:36:53,    152,    0.0,   11.8,   0.00,   0.00, 1015.4,   98.6, -999.0
04-10-2022, 00:37:03,    151,    0.0,   11.8,   0.00,   0.00, 1015.4,   98.6, -999.0
04-10-2022, 00:37:13,    152,    0.0,   11.8,   0.00,   0.00, 1015.4,   98.6, -999.0
04-10-2022, 00:37:23,    152,    0.0,   11.8,   0.00,   0.00, 1015.4,   98.6, -999.0
04-10-2022, 00:37:33,    152,    0.0,   11.8,   0.00,   0.00, 1015.4,   98.6, -999.0
04-10-2022, 00:37:43,    152,    0.0,   11.8,   0.00,   0.00, 1015.3,   98.6, -999.0
04-10-2022, 00:37:53,    151,    0.0,   11.7,   0.00,   0.00, 1015.3,   98.6, -999.0
04-10-2022, 00:38:03,    151,    0.0,   11.8,   0.00,   0.00, 1015.3,   98.6, -999.0
04-10-2022, 00:38:13,    151,    0.0,   11.8,   0.00,   0.00, 1015.3,   98.7, -999.0
04-10-2022, 00:38:23,    151,    0.0,   11.8,   0.00,   0.00, 1015.3,   98.6, -999.0
04-10-2022, 00:38:33,    151,    0.0,   11.8,   0.00,   0.00, 1015.3,   98.6, -999.0
04-10-2022, 00:38:43,    152,    0.0,   11.8,   0.00,   0.00, 1015.3,   98.6, -999.0
04-10-2022, 00:38:53,    151,    0.0,   11.7,   0.00,   0.00, 1015.3,   98.6, -999.0
04-10-2022, 00:39:03,    151,    0.0,   11.8,   0.00,   0.00, 1015.3,   98.6, -999.0
04-10-2022, 00:39:12,    151,    0.0,   11.8,   0.00,   0.00, 1015.3,   98.6, -999.0
04-10-2022, 00:39:23,    151,    0.0,   11.8,   0.00,   0.00, 1015.3,   98.6, -999.0
04-10-2022, 00:39:33,    151,    0.0,   11.7,   0.00,   0.00, 1015.3,   98.6, -999.0
04-10-2022, 00:39:42,    152,    0.0,   11.7,   0.00,   0.00, 1015.3,   98.5, -999.0
04-10-2022, 00:39:52,    151,    0.0,   11.8,   0.00,   0.00, 1015.3,   98.6, -999.0
04-10-2022, 00:40:02,    151,    0.0,   11.8,   0.00,   0.00, 1015.3,   98.6, -999.0
04-10-2022, 00:40:12,    151,    0.0,   11.7,   0.00,   0.00, 1015.3,   98.6, -999.0
04-10-2022, 00:40:22,    151,    0.0,   11.7,   0.00,   0.00, 1015.3,   98.6, -999.0
04-10-2022, 00:40:32,    151,    0.0,   11.8,   0.00,   0.00, 1015.3,   98.6, -999.0
04-10-2022, 00:40:42,    152,    0.0,   11.8,   0.00,   0.00, 1015.3,   98.6, -999.0
04-10-2022, 00:40:52,    152,    0.0,   11.8,   0.00,   0.00, 1015.3,   98.6, -999.0
04-10-2022, 00:41:02,    152,    0.0,   11.8,   0.00,   0.00, 1015.3,   98.6, -999.0
04-10-2022, 00:41:12,    151,    0.0,   11.8,   0.00,   0.00, 1015.3,   98.6, -999.0
04-10-2022, 00:41:22,    151,    0.0,   11.7,   0.00,   0.00, 1015.3,   98.6, -999.0
04-10-2022, 00:41:32,    151,    0.0,   11.8,   0.00,   0.00, 1015.3,   98.6, -999.0
04-10-2022, 00:41:42,    152,    0.0,   11.8,   0.00,   0.00, 1015.3,   98.6, -999.0
04-10-2022, 00:41:52,    151,    0.0,   11.8,   0.00,   0.00, 1015.2,   98.6, -999.0
04-10-2022, 00:42:02,    151,    0.0,   11.8,   0.00,   0.00, 1015.3,   98.6, -999.0
04-10-2022, 00:42:12,    152,    0.0,   11.8,   0.00,   0.00, 1015.3,   98.5, -999.0
04-10-2022, 00:42:21,    151,    0.0,   11.8,   0.00,   0.00, 1015.3,   98.6, -999.0
04-10-2022, 00:42:32,    151,    0.0,   11.8,   0.00,   0.00, 1015.3,   98.6, -999.0
04-10-2022, 00:42:41,    151,    0.0,   11.7,   0.00,   0.00, 1015.3,   98.6, -999.0
04-10-2022, 00:42:51,    151,    0.0,   11.7,   0.00,   0.00, 1015.3,   98.6, -999.0
04-10-2022, 00:43:01,    152,    0.0,   11.7,   0.00,   0.00, 1015.3,   98.6, -999.0
04-10-2022, 00:43:11,    151,    0.0,   11.7,   0.00,   0.00, 1015.3,   98.6, -999.0
04-10-2022, 00:43:21,    151,    0.0,   11.7,   0.00,   0.00, 1015.3,   98.7, -999.0
04-10-2022, 00:43:31,    151,    0.0,   11.7,   0.00,   0.00, 1015.3,   98.6, -999.0
04-10-2022, 00:43:41,    152,    0.0,   11.7,   0.00,   0.00, 1015.3,   98.6, -999.0
04-10-2022, 00:43:51,    151,    0.0,   11.7,   0.00,   0.00, 1015.3,   98.6, -999.0
04-10-2022, 00:44:01,    151,    0.0,   11.7,   0.00,   0.00, 1015.3,   98.6, -999.0
04-10-2022, 00:44:11,    152,    0.0,   11.7,   0.00,   0.00, 1015.3,   98.6, -999.0
04-10-2022, 00:44:21,    151,    0.0,   11.7,   0.00,   0.00, 1015.3,   98.6, -999.0
04-10-2022, 00:44:31,    152,    0.0,   11.7,   0.00,   0.00, 1015.3,   98.6, -999.0
04-10-2022, 00:44:41,    151,    0.0,   11.7,   0.00,   0.00, 1015.3,   98.6, -999.0
04-10-2022, 00:44:51,    151,    0.0,   11.7,   0.00,   0.00, 1015.3,   98.6, -999.0
04-10-2022, 00:45:01,    152,    0.0,   11.8,   0.00,   0.00, 1015.3,   98.6, -999.0
04-10-2022, 00:45:11,    151,    0.0,   11.8,   0.00,   0.00, 1015.3,   98.6, -999.0
04-10-2022, 00:45:21,    151,    0.0,   11.8,   0.00,   0.00, 1015.3,   98.6, -999.0
04-10-2022, 00:45:30,    151,    0.0,   11.8,   0.00,   0.00, 1015.3,   98.6, -999.0
04-10-2022, 00:45:41,    152,    0.0,   11.8,   0.00,   0.00, 1015.3,   98.6, -999.0
04-10-2022, 00:45:50,    152,    0.0,   11.8,   0.00,   0.00, 1015.2,   98.6, -999.0
04-10-2022, 00:46:00,    152,    0.0,   11.8,   0.00,   0.00, 1015.2,   98.6, -999.0
04-10-2022, 00:46:10,    152,    1.2,   11.8,   0.00,   0.00, 1015.4,   99.0, -999.0
04-10-2022, 00:46:20,    152,    0.7,   11.8,   0.00,   0.00, 1015.4,   99.0, -999.0
04-10-2022, 00:46:30,    152,    0.2,   11.8,   0.00,   0.00, 1015.3,   98.9, -999.0
04-10-2022, 00:46:40,    152,    0.1,   11.8,   0.00,   0.00, 1015.3,   98.8, -999.0